Weather in Liepaya

Latvia     56°30′29″N   21°00′41″E
temp.,
°C
wind,
m/s
gust,
m/s
humid.,
%
clouds,
%
prec.,
mm/h
press.,
hPa
HPBL,
m
13 april, tue
tue1300:00+4wsw3589100 0.5 1021366
03:00+4wsw238794 0.6 1021122
06:00+4wnw238398 0.0 102264
09:00+5w3469100 0.0 1023231
12:00+5w4571100 0.0 1024585
15:00+5w456795 0.0 1024683
18:00+5wsw4575100 0.0 1023593
21:00+3wsw3589100 0.0 1023291
14 april, wed
wed1400:00+3wsw359267 0.0 1023183
03:00+3wsw119191 0.0 102220
06:00+3wnw1189100 0.0 102114
09:00+4nnw2381100 0.0 1022213
12:00+6nnw556792 0.0 1023731
15:00+6n6763100 0.0 1023732
18:00+5n7107399 0.0 1023585
21:00+3n71280100 0.0 1024490
15 april, thu
thu1500:00+3nne61176100 0.0 1025480
03:00+2nne71270100 0.0 1025476
06:00+2nne61271100 0.0 1025418
09:00+4nne61268100 0.0 1025485
12:00+8nne71254100 0.0 1025795
15:00+9nne81146100 0.0 1024849
18:00+8nne71151100 0.0 1024790
21:00+6nne71355100 0.0 1025577
16 april, fri
fri1600:00+5ne71455100 0.0 1025612
03:00+4ne71561100 0.0 1024561
06:00+4ne71565100 0.1 1023567
09:00+5ne71568100 0.2 1024502
12:00+8ne7126284 0.0 1024506
15:00+8ne61265100 0.0 1024406
18:00+10ne61257100 0.0 1025456
21:00+8ne61255100 0.0 1026375
17 april, sat
sat1700:00+7ne5125962 0.0 1027281
03:00+5ne5116789 0.0 1027252
06:00+4ne5127495 0.0 1028275
09:00+6ene596847 0.0 1028267
12:00+11ene585795 0.0 1028461
15:00+13ene365621 0.0 1028584
18:00+14e46535 0.0 1028814
21:00+10ene476862 0.0 1029115